Tracking 29089 objects as of 13-Jul-2024
HD Live streaming from Space Station
objects crossing your sky now

COSMOS 1974

Track COSMOS 1974 now!
COSMOS 1974 is classified as:


NORAD ID: 19554
Int'l Code: 1988-092A
Perigee: 8,657.0 km
Apogee: 31,717.4 km
Inclination: 70.0 °
Period: 717.9 minutes
Semi major axis: 26558 km
RCS: 16.1296 m2 (large)
Launch date: October 3, 1988
Source: Commonwealth of Independent States (former USSR) (CIS)
Launch site: PLESETSK MISSILE AND SPACE COMPLEX (PKMTR)
Your satellite tracking list
Your tracking list is empty




NASA's NSSDC Master Catalog

Two Line Element Set (TLE):
1 19554U 88092A   24192.47513653  .00000132  00000-0  00000-0 0  9999
2 19554  69.9735 209.7506 4341474  84.2585  28.1177  2.00587988261960
Source of the keplerian elements: AFSPC